Regional Weather Roundup
Issued by NWS Sterling, VA

Home | Current Version | Previous Version | Text Only | Print | Product List | Glossary Off
Versions: 1 2 3 4 5 6 7 8 9 10 11 12 13 14 15 16 17 18 19 20 21 22 23 24 25 26 27 28 29 30 31 32 33 34 35 36 37 38 39 40 41 42 43 44 45 46 47 48 49 50

000
ASUS41 KLWX 180711
RWRLWX

REGIONAL WEATHER ROUNDUP
NATIONAL WEATHER SERVICE BALTIMORE MD/WASHINGTON DC
300 AM EDT WED OCT 18 2017

Note: "FAIR" indicates few or no clouds below 12,000 feet
with no significant weather and/or obstructions to visibility.
 TC=TEMPERATURE CELSIUS

 * =Non NWS site. Station does not report precipitation (e.g. rain,
    snow, etc.), thunder, or fog.

DCZ001-MDZ009-015-VAZ040>042-051-053>054-180800-
WASHINGTON METRO

CITY           SKY/WX    TMP DP  RH WIND       PRES   REMARKS
WASHINGTON NAT PTCLDY    49  43  80 CALM      30.34F
DULLES         CLEAR     41  38  89 CALM      30.33S
ANDREWS AFB    CLEAR     41  39  93 CALM      30.32S
FT BELVOIR     CLEAR     39  38  95 CALM      30.34S
QUANTICO       CLEAR     44  42  93 NW7       30.35S
COLLEGE PARK*  PTCLDY    40  39  97 CALM      30.33S
LEESBURG*      CLEAR     41  41 100 CALM      30.33S
MANASSAS*      CLEAR     36  35  96 S3        30.34S
GAITHERSBURG*  CLEAR     40  39  97 CALM      30.33S

$$

MDZ006>007-011-014-180800-
BALTIMORE METRO

CITY           SKY/WX    TMP DP  RH WIND       PRES   REMARKS
BWI AIRPORT    CLEAR     42  41  96 CALM      30.33S
MD SCIENCE CTR   N/A     52  40  63 MISG      30.33S
MARTIN STATE   CLEAR     43  43 100 CALM      30.34S
ANNAPOLIS      CLEAR     47  45  93 CALM      30.33S
FORT MEADE*    CLEAR     37  36  93 CALM      30.36S

$$

MDZ012-015-019>023-180800-
MARYLAND EASTERN SHORE

CITY           SKY/WX    TMP DP  RH WIND       PRES   REMARKS
OCEAN CITY     CLEAR     39  38  96 CALM      30.34S
SALISBURY      PTCLDY    38  36  92 CALM      30.34S
CAMBRIDGE*     CLEAR     39  37  93 CALM      30.34S
EASTON*        CLEAR     44  41  91 CALM      30.37S

$$

MDZ017>025-180800-
SOUTHERN MARYLAND

CITY           SKY/WX    TMP DP  RH WIND       PRES   REMARKS
PATUXENT RIVER CLEAR     39  32  76 W3        30.33S
ST INIGOES     CLEAR     40  39  97 CALM      30.33S
LEONARDTOWN*   NOT AVBL

$$

MDZ003>005-180800-
NORTH CENTRAL MARYLAND

CITY           SKY/WX    TMP DP  RH WIND       PRES   REMARKS
FREDERICK*     PTCLDY    41  41 100 S3        30.35F
HAGERSTOWN APT CLEAR     45  37  73 CALM      30.31F
WESTMINSTER*   CLEAR     45  37  76 CALM      30.31F

$$

MDZ501>502-180800-
WESTERN MARYLAND

CITY           SKY/WX    TMP DP  RH WIND       PRES   REMARKS
OAKLAND*       CLEAR     45  32  61 W6        30.30S
CUMBERLAND*    CLOUDY    39  39 100 CALM      30.37S VSB 1/4

$$

VAZ025>031-180800-
SHENANDOAH VALLEY

CITY           SKY/WX    TMP DP  RH WIND       PRES   REMARKS
WINCHESTER*    CLEAR     37  36  93 CALM      30.32S
FRONT ROYAL*   CLEAR     43  37  81 SW5       30.32S
LURAY*         CLEAR     37  37 100 CALM      30.33S
NEW MARKET*    CLEAR     35  33  94 CALM      30.33S
STAUNTON*      CLEAR     33  32  95 CALM      30.35S
WAYNESBORO*    CLEAR     37  37  97 S3        30.33S

$$

WVZ021-048>050-054>055-180800-
EASTERN WEST VIRGINIA PANHANDLE

CITY           SKY/WX    TMP DP  RH WIND       PRES   REMARKS
MARTINSBURG    CLEAR     38  36  92 CALM      30.31F
PETERSBURG*    CLEAR     35  34  96 CALM      30.34F

$$

VAZ036>039-050-180800-
CENTRAL FOOTHILLS

CITY           SKY/WX    TMP DP  RH WIND       PRES   REMARKS
CHARLOTTESVILL CLEAR     41  38  89 W5        30.33S
CULPEPER*      CLEAR     36  34  94 CALM      30.35S
ORANGE*        CLEAR     34  34 100 CALM      30.33S
GORDONSVILLE*  CLEAR     37  37 100 CALM      30.33S
WARRENTON*     CLEAR     34  32  91 CALM      30.33S

$$

VAZ055>057-180800-
NORTH AND CENTRAL PIEDMONT

CITY           SKY/WX    TMP DP  RH WIND       PRES   REMARKS
FREDERICKSBRG* CLEAR     39  39 100 CALM      30.34R
STAFFORD*      CLEAR     35  35 100 CALM      30.38S

$$

NCZ024-NYZ072-PAZ021-071-VAZ022-071-180800-
OTHER REGIONAL OBSERVATIONS

CITY           SKY/WX    TMP DP  RH WIND       PRES   REMARKS
NEW YORK CITY  CLEAR     51  38  60 VRB6      30.31S
PHILADELPHIA   CLEAR     49  37  63 W3        30.32F
PITTSBURGH     CLEAR     48  39  71 CALM      30.30F
ROANOKE        CLEAR     41  39  93 CALM      30.36R
RICHMOND       CLEAR     42  40  92 CALM      30.34S
RALEIGH        CLEAR     41  40  96 CALM      30.34R

$$

ANZ530>537-180800-
MARINE OBSERVATIONS

STATION/POSITION TIME  TEMP    WIND        PRES
                       AIR SEA DIR/SP/G
                 (UTC) (F)     (DEG/KT/KT) (MB)
THOMAS PT LIGHT  0700   54 67  270/  7/  8   N/A
BALT KEY BRIDGE  0648          250/  4/  5 1027.0S
COVE POINT       0648          250/  3/  5 1027.8R
LEWISETTA        0648          260/  3/  4 1027.2S
SOLOMONS ISLAND  0648          320/  2/  3 1026.9R
PINEY POINT      0642          240/  5/  7   N/A

$$




USA.gov is the U.S. government's official web portal to all federal, state and local government web resources and services.